Simultaneous Nadir Overpasses (SNOs) Predictions

Prediction of SNOs between METOP-B and TERRA Satellite Orbit:

Table of predicted SNOs for the next 14.0 days since TLE Epoch: 8/29/2020
Index Date (METOP-B) Time (METOP-B) Lat,Lon (METOP-B) SZA (METOP-B ) Date (TERRA) Time (TERRA) Lat,Lon (TERRA) SZA (TERRA ) Distance(km) Time Diff (sec)
1 08/31/2020 03:22:38 -81.33, -2.75 104.28 08/31/2020 03:22:56 -81.34, -2.81 104.28 1.10 18
2 08/31/2020 04:13:19 81.33, 164.60 75.74 08/31/2020 04:12:23 81.32, 164.59 75.71 0.90 56
3 09/02/2020 22:56:59 -81.33, 63.53 103.25 09/02/2020 22:57:11 -81.34, 63.67 103.23 2.65 12
4 09/02/2020 23:47:39 81.33,-128.76 76.81 09/02/2020 23:46:38 81.33,-128.95 76.75 3.33 61
5 09/05/2020 18:31:20 -81.33, 129.80 102.21 09/05/2020 18:31:27 -81.32, 129.75 102.22 1.29 7
6 09/05/2020 19:21:59 81.34, -62.13 77.90 09/05/2020 19:20:52 81.35, -62.14 77.87 0.87 67
7 09/08/2020 13:15:15 81.20, 22.60 78.08 09/08/2020 13:16:29 80.97, 23.06 78.00 26.05 74
8 09/08/2020 14:05:39 -81.33,-163.54 101.10 09/08/2020 14:05:40 -81.34,-163.44 101.09 1.85 1
9 09/08/2020 14:56:19 81.34, 4.09 78.95 09/08/2020 14:55:06 81.34, 4.26 78.94 2.99 73
10 09/11/2020 08:49:20 81.33, 95.04 79.92 09/11/2020 08:50:29 81.32, 94.95 79.93 1.79 69
